Location: Bailleul
(50.3375°N, 2.8513°E)
Time: 10:14:55
(UTC+00:00)

Cosmos 1825 - Pass Details

Date: 19 April 2021
Orbit: 502 x 506 km, 82.5° (Epoch: 05 May)

Event Time Altitude Azimuth Distance (km) Brightness Sun altitude
Rises 19:43:14 0° 350° (N) 2,618 6.4 -8.6°
Reaches altitude 10° 19:45:22 10° 350° (N) 1,729 5.5 -8.9°
Maximum altitude 19:49:09 88° 75° (ENE) 513 2.1 -9.4°
Drops below altitude 10° 19:52:56 10° 171° (S) 1,715 4.5 -9.9°
Enters shadow 19:54:08 - 171° (S) 2,218 5.0 -10.1°
